Canterbury Lake Weather Center

Moon Phase Calendar



Canterbury Lake Water Level
Online Cameras

 


      

Current Conditions in Fairfield Glade
10/31/2020 2:45:25 PM

60°F
Feels Like 55
Clear
Humidity
48%
Pressure
30.3"
Wind
4.7 mph (N)
Dew Point
40°F
UV Index
4/10 (Moderate)
Visibility
6 mi

Hourly Forecast

Date & Time Sat, Oct 31
2:00 PM
Sat, Oct 31
3:00 PM
Sat, Oct 31
4:00 PM
Sat, Oct 31
5:00 PM
Sat, Oct 31
6:00 PM
Sat, Oct 31
7:00 PM
Sat, Oct 31
8:00 PM
Sat, Oct 31
9:00 PM
Sat, Oct 31
10:00 PM
Sat, Oct 31
11:00 PM
Sun, Nov 1
12:00 AM
Sun, Nov 1
1:00 AM
Sun, Nov 1
2:00 AM
Sun, Nov 1
3:00 AM
Sun, Nov 1
4:00 AM
Sun, Nov 1
5:00 AM
Sun, Nov 1
6:00 AM
Sun, Nov 1
7:00 AM
Sun, Nov 1
8:00 AM
Sun, Nov 1
9:00 AM
Sun, Nov 1
10:00 AM
Sun, Nov 1
11:00 AM
Sun, Nov 1
12:00 PM
Sun, Nov 1
1:00 PM
Sun, Nov 1
2:00 PM
Sun, Nov 1
3:00 PM
Sun, Nov 1
4:00 PM
Sun, Nov 1
5:00 PM
Sun, Nov 1
6:00 PM
Sun, Nov 1
7:00 PM
Sun, Nov 1
8:00 PM
Sun, Nov 1
9:00 PM
Sun, Nov 1
10:00 PM
Sun, Nov 1
11:00 PM
Mon, Nov 2
12:00 AM
Mon, Nov 2
1:00 AM
Mon, Nov 2
2:00 AM
Mon, Nov 2
3:00 AM
Mon, Nov 2
4:00 AM
Mon, Nov 2
5:00 AM
Mon, Nov 2
6:00 AM
Mon, Nov 2
7:00 AM
Mon, Nov 2
8:00 AM
Mon, Nov 2
9:00 AM
Mon, Nov 2
10:00 AM
Mon, Nov 2
11:00 AM
Mon, Nov 2
12:00 PM
Mon, Nov 2
1:00 PM
Condition
Clear

Clouds

Clouds

Clouds

Clouds

Clouds

Clouds

Clouds

Clouds

Clouds

Clouds

Clouds

Clouds

Clouds

Clouds

Clouds

Clouds

Rain

Rain

Clouds

Clouds

Clouds

Clouds

Clouds

Clouds

Clouds

Clouds

Clouds

Clouds

Clouds

Clear

Clear

Clear

Clear

Clear

Clear

Clear

Clear

Clear

Clear

Clear

Clear

Clear

Clear

Clear

Clear

Clear

Clear
Temperature 60°F58°F56°F52°F48°F47°F46°F46°F46°F46°F46°F46°F48°F50°F50°F51°F51°F51°F51°F52°F53°F55°F55°F51°F49°F51°F48°F44°F40°F38°F37°F36°F35°F34°F33°F31°F30°F29°F28°F28°F28°F27°F29°F33°F37°F41°F44°F46°F
Feels Like 55°F53°F51°F49°F44°F42°F41°F41°F41°F40°F40°F41°F42°F44°F45°F45°F46°F46°F46°F46°F46°F48°F46°F42°F39°F39°F35°F33°F30°F27°F25°F24°F23°F23°F22°F21°F21°F21°F20°F20°F20°F20°F22°F26°F30°F34°F37°F38°F
Cloudiness 1%24%52%69%78%82%87%94%96%97%97%98%100%100%100%100%100%100%100%100%92%71%74%78%100%89%60%45%36%29%0%0%0%0%0%0%0%0%0%0%0%0%0%0%0%0%0%0%
Visibility 6 mi6 mi6 mi6 mi6 mi6 mi6 mi6 mi6 mi6 mi6 mi6 mi6 mi6 mi6 mi6 mi6 mi6 mi6 mi6 mi6 mi6 mi6 mi6 mi6 mi6 mi6 mi6 mi6 mi6 mi6 mi6 mi6 mi6 mi6 mi6 mi6 mi6 mi6 mi6 mi6 mi6 mi6 mi6 mi6 mi6 mi6 mi6 mi
Precipitation 0%0%0%0%0%0%0%0%0%0%0%0%0%0%0%0%0%20%25%8%4%0%0%0%0%0%0%0%0%0%0%0%0%0%0%0%0%0%0%0%0%0%0%0%0%0%0%0%
Humidity 48%53%60%74%81%81%81%82%85%89%91%93%91%88%88%89%91%94%94%92%82%74%74%79%78%60%52%60%70%73%75%78%80%83%87%89%89%90%91%90%90%90%88%81%69%60%53%50%
Dew Point 40°F41°F43°F44°F42°F41°F41°F41°F42°F43°F44°F44°F45°F47°F47°F48°F48°F49°F50°F50°F48°F47°F47°F45°F42°F38°F31°F29°F28°F27°F25°F24°F23°F22°F21°F21°F20°F20°F20°F19°F19°F19°F18°F18°F18°F18°F19°F19°F
Pressure 30.3"30.27"30.24"30.21"30.21"30.21"30.24"30.24"30.24"30.21"30.21"30.18"30.18"30.15"30.15"30.15"30.15"30.15"30.15"30.15"30.12"30.12"30.12"30.12"30.12"30.12"30.15"30.18"30.24"30.27"30.3"30.33"30.33"30.36"30.36"30.36"30.36"30.36"30.39"30.39"30.42"30.42"30.45"30.45"30.45"30.42"30.42"30.36"
Wind Speed 6.1 mph6.4 mph5.7 mph4 mph3.8 mph4.4 mph5.3 mph6.2 mph6 mph6.3 mph7.4 mph8.1 mph7.6 mph8.3 mph9.1 mph9.3 mph8.4 mph7.2 mph8.5 mph10.2 mph11.6 mph12.5 mph13.5 mph14.2 mph14.2 mph15.1 mph16.1 mph13.7 mph12 mph13.4 mph14.2 mph14.6 mph13.8 mph13 mph11.9 mph10.5 mph8.4 mph6.8 mph6.5 mph6.5 mph5.9 mph4.7 mph5.3 mph5.5 mph5.6 mph6 mph6.2 mph6.4 mph
Wind
Direction
168°
SSE
167°
SSE
168°
SSE
159°
SSE
161°
SSE
161°
SSE
170°
S
170°
S
169°
S
178°
S
185°
S
188°
S
195°
SSW
199°
SSW
207°
SSW
208°
SSW
213°
SSW
222°
SW
230°
SW
248°
WSW
260°
W
269°
W
278°
W
290°
WNW
297°
WNW
299°
WNW
306°
NW
310°
NW
309°
NW
314°
NW
317°
NW
323°
NW
326°
NW
330°
NNW
333°
NNW
336°
NNW
341°
NNW
336°
NNW
334°
NNW
333°
NNW
339°
NNW
342°
NNW
347°
NNW
353°
N
342°
NNW
335°
NNW
330°
NNW
323°
NW

Daily Forecast

Date High Low Precip. Humidity
Today
Oct 31

Clear
60 °F
35 °F
0%
48%
Sunday
Nov 1

Rain
53 °F
35 °F
24%
79%
Monday
Nov 2

Clear
46 °F
27 °F
0%
50%
Tuesday
Nov 3

Clear
56 °F
32 °F
0%
45%
Wednesday
Nov 4

Clear
58 °F
38 °F
0%
49%
Thursday
Nov 5

Clouds
60 °F
43 °F
0%
56%
Friday
Nov 6

Clear
65 °F
44 °F
0%
53%
Saturday
Nov 7

Clouds
66 °F
47 °F
0%
53%
Sunday
Nov 8

Rain
59 °F
55 °F
100%
97%
Monday
Nov 9

Rain
69 °F
59 °F
100%
98%
Tuesday
Nov 10

Clouds
68 °F
46 °F
33%
76%
Wednesday
Nov 11

Clear
46 °F
28 °F
0%
53%
Thursday
Nov 12

Clear
42 °F
24 °F
0%
52%
Friday
Nov 13

Rain
40 °F
31 °F
100%
70%
Saturday
Nov 14

Rain
36 °F
29 °F
100%
99%
Sunday
Nov 15

Snow
30 °F
23 °F
46%
94%


Temperature 8-14 Day Outlook



Precipitation 8-14 Day Outlook




Quick Links
Canterbury Lake News
Canterbury Lake Photos
Canterbury Lake Videos




About Us
Contact Us
Site Map
Search Site
Advertise With Us
   
Canterbury.LakesOnline.com
THE CANTERBURY LAKE WEBSITE

Copyright 2020, Lakes Online
Privacy    |    Legal